RYR248P EDNY-LEPA

Flight info

Callsign RYR248P
Flight time 1h 37m
Altitude 37000
Route TRA1E TRA DCT LUTIX DCT BENOT DCT NEMOS DCT GEVEA DCT INCUS DCT BALSI DCT RETNO DCT TUPOX DCT MTG DCT DIVKO DCT VATIR N852 PIVUS DCT BODEQ N852 VERSO DCT LUNIK
Aircraft A320/M-SDE3FGHIRWY/LB1

Departure

Time 2026-04-22 15:05
Airport Bodensee Airport Friedrichshafen (EDNY)

Arrival

Time 2026-04-22 16:42
Airport Palma de Mallorca Airport (LEPA)
Time Latitude Longitude Altitude Speed Heading
2026-04-22 14:36 47.67334 9.52307 1375 ft 0 kts 174°
2026-04-22 14:56 47.67341 9.52306 1376 ft 2 kts 175°
2026-04-22 14:57 47.67361 9.52304 1381 ft 3 kts 181°
2026-04-22 14:57 47.67381 9.52306 1389 ft 3 kts 194°
2026-04-22 14:57 47.67399 9.52316 1371 ft 3 kts 222°
2026-04-22 14:57 47.67406 9.52328 1372 ft 0 kts 240°
2026-04-22 14:59 47.67402 9.52317 1373 ft 3 kts 240°
2026-04-22 14:59 47.67384 9.52270 1369 ft 7 kts 240°
2026-04-22 15:00 47.67352 9.52187 1373 ft 11 kts 240°
2026-04-22 15:00 47.67307 9.52070 1373 ft 15 kts 240°
2026-04-22 15:00 47.67258 9.51940 1373 ft 15 kts 240°
2026-04-22 15:00 47.67198 9.51793 1376 ft 18 kts 240°
2026-04-22 15:01 47.67133 9.51624 1374 ft 20 kts 240°
2026-04-22 15:01 47.67062 9.51442 1374 ft 21 kts 240°
2026-04-22 15:01 47.66987 9.51247 1376 ft 22 kts 240°
2026-04-22 15:01 47.66908 9.51044 1374 ft 19 kts 239°
2026-04-22 15:02 47.66840 9.50870 1374 ft 17 kts 240°
2026-04-22 15:02 47.66768 9.50751 1373 ft 16 kts 212°
2026-04-22 15:02 47.66671 9.50652 1374 ft 18 kts 233°
2026-04-22 15:02 47.66606 9.50489 1375 ft 19 kts 239°
2026-04-22 15:03 47.66536 9.50311 1373 ft 21 kts 240°
2026-04-22 15:03 47.66492 9.50197 1374 ft 13 kts 240°
2026-04-22 15:03 47.66469 9.50085 1376 ft 12 kts 274°
2026-04-22 15:03 47.66509 9.49966 1375 ft 14 kts 302°
2026-04-22 15:04 47.66555 9.49858 1375 ft 11 kts 307°
2026-04-22 15:04 47.66621 9.49841 1377 ft 9 kts 37°
2026-04-22 15:04 47.66634 9.49872 1376 ft 0 kts 58°
2026-04-22 15:04 47.66666 9.49948 1377 ft 34 kts 58°
2026-04-22 15:05 47.66904 9.50555 1374 ft 99 kts 60°
2026-04-22 15:05 47.67335 9.51644 1472 ft 136 kts 56°
2026-04-22 15:05 47.67807 9.52865 2074 ft 136 kts 59°
2026-04-22 15:05 47.68281 9.54094 2715 ft 141 kts 60°
2026-04-22 15:06 47.68618 9.54965 2916 ft 154 kts 60°
2026-04-22 15:06 47.69403 9.56993 3310 ft 184 kts 60°
2026-04-22 15:06 47.70067 9.58669 3933 ft 190 kts 55°
2026-04-22 15:06 47.71138 9.59807 4633 ft 201 kts 15°
2026-04-22 15:07 47.72554 9.59471 5304 ft 222 kts 334°
2026-04-22 15:07 47.73735 9.57968 6057 ft 231 kts 316°
2026-04-22 15:07 47.74760 9.56099 6808 ft 235 kts 310°
2026-04-22 15:07 47.75756 9.54137 7469 ft 240 kts 310°
2026-04-22 15:08 47.76779 9.52154 8212 ft 242 kts 310°
2026-04-22 15:08 47.77826 9.50197 8963 ft 243 kts 313°
2026-04-22 15:08 47.78910 9.48235 9657 ft 248 kts 314°
2026-04-22 15:08 47.79843 9.46048 10349 ft 255 kts 295°
2026-04-22 15:09 47.80318 9.43398 10686 ft 279 kts 280°
2026-04-22 15:09 47.80621 9.40423 10938 ft 303 kts 281°
2026-04-22 15:09 47.80958 9.37206 11170 ft 326 kts 280°
2026-04-22 15:09 47.81316 9.33806 11341 ft 348 kts 281°
2026-04-22 15:10 47.81697 9.30199 11868 ft 355 kts 280°
2026-04-22 15:10 47.82079 9.26551 12571 ft 357 kts 280°
2026-04-22 15:10 47.82462 9.22886 13257 ft 361 kts 281°
2026-04-22 15:10 47.82853 9.19179 13976 ft 364 kts 281°
2026-04-22 15:11 47.83222 9.15441 14619 ft 368 kts 278°
2026-04-22 15:11 47.83160 9.11608 15233 ft 375 kts 264°
2026-04-22 15:11 47.82516 9.07836 15923 ft 377 kts 255°
2026-04-22 15:11 47.81736 9.04113 16595 ft 378 kts 255°
2026-04-22 15:12 47.80960 9.00423 17213 ft 380 kts 255°
2026-04-22 15:12 47.80168 8.96657 17834 ft 383 kts 256°
2026-04-22 15:12 47.79374 8.92871 18496 ft 384 kts 256°
2026-04-22 15:12 47.78577 8.89064 19089 ft 386 kts 255°
2026-04-22 15:13 47.77779 8.85246 19632 ft 389 kts 255°
2026-04-22 15:13 47.76966 8.81381 20170 ft 393 kts 256°
2026-04-22 15:13 47.76146 8.77496 20746 ft 396 kts 255°
2026-04-22 15:13 47.75319 8.73578 21328 ft 398 kts 255°
2026-04-22 15:14 47.74498 8.69697 21852 ft 400 kts 255°
2026-04-22 15:14 47.73659 8.65738 22365 ft 404 kts 256°
2026-04-22 15:14 47.72813 8.61749 22894 ft 406 kts 255°
2026-04-22 15:14 47.71959 8.57738 23411 ft 408 kts 255°
2026-04-22 15:15 47.71098 8.53707 23882 ft 411 kts 255°
2026-04-22 15:15 47.70229 8.49657 24290 ft 413 kts 255°
2026-04-22 15:15 47.69301 8.45615 24717 ft 416 kts 250°
2026-04-22 15:15 47.67980 8.41776 25146 ft 421 kts 240°
2026-04-22 15:16 47.66295 8.38204 25529 ft 424 kts 237°
2026-04-22 15:16 47.64589 8.34700 25945 ft 425 kts 237°
2026-04-22 15:16 47.62862 8.31136 26350 ft 426 kts 238°
2026-04-22 15:16 47.61133 8.27561 26731 ft 428 kts 238°
2026-04-22 15:17 47.59393 8.23967 27116 ft 430 kts 238°
2026-04-22 15:17 47.57649 8.20366 27482 ft 432 kts 238°
2026-04-22 15:17 47.55889 8.16741 27858 ft 434 kts 238°
2026-04-22 15:17 47.54119 8.13110 28241 ft 436 kts 238°
2026-04-22 15:18 47.52337 8.09468 28616 ft 438 kts 238°
2026-04-22 15:18 47.50547 8.05813 28990 ft 439 kts 239°
2026-04-22 15:18 47.48785 8.02212 29410 ft 439 kts 239°
2026-04-22 15:18 47.46995 7.98551 29796 ft 440 kts 240°
2026-04-22 15:19 47.45202 7.94898 30300 ft 438 kts 240°
2026-04-22 15:19 47.43416 7.91273 30732 ft 436 kts 240°
2026-04-22 15:19 47.41632 7.87655 31153 ft 435 kts 240°
2026-04-22 15:19 47.39852 7.84043 31562 ft 435 kts 240°
2026-04-22 15:20 47.38677 7.81659 31833 ft 434 kts 240°
2026-04-22 15:20 47.36299 7.76839 32367 ft 434 kts 240°
2026-04-22 15:20 47.34524 7.73244 32768 ft 433 kts 240°
2026-04-22 15:20 47.32751 7.69657 33179 ft 433 kts 240°
2026-04-22 15:21 47.30979 7.66086 33650 ft 431 kts 240°
2026-04-22 15:21 47.30402 7.64928 33794 ft 430 kts 240°
2026-04-22 15:21 47.25582 7.55252 34805 ft 428 kts 240°
2026-04-22 15:22 47.23821 7.51713 35142 ft 429 kts 240°
2026-04-22 15:22 47.22052 7.48166 35403 ft 430 kts 240°
2026-04-22 15:22 47.20280 7.44618 35626 ft 431 kts 240°
2026-04-22 15:22 47.18508 7.41073 35914 ft 430 kts 240°
2026-04-22 15:23 47.16738 7.37537 36221 ft 429 kts 240°
2026-04-22 15:23 47.14966 7.34071 36470 ft 430 kts 239°
2026-04-22 15:23 47.13120 7.30607 36744 ft 431 kts 238°
2026-04-22 15:23 47.11244 7.27177 37007 ft 431 kts 237°
2026-04-22 15:24 47.09350 7.23753 37123 ft 433 kts 237°
2026-04-22 15:24 47.07438 7.20301 37147 ft 439 kts 237°
2026-04-22 15:24 47.03584 7.13301 37144 ft 442 kts 237°
2026-04-22 15:25 46.99738 7.06261 37140 ft 442 kts 238°
2026-04-22 15:25 46.95923 6.99273 37116 ft 442 kts 238°
2026-04-22 15:26 46.92069 6.92270 37137 ft 443 kts 235°
2026-04-22 15:26 46.87431 6.86158 37143 ft 452 kts 226°
2026-04-22 15:27 46.82549 6.80352 37146 ft 453 kts 226°
2026-04-22 15:27 46.77666 6.74533 37146 ft 453 kts 226°
2026-04-22 15:28 46.72809 6.68779 37140 ft 453 kts 226°
2026-04-22 15:28 46.67915 6.63002 37148 ft 453 kts 226°
2026-04-22 15:29 46.63034 6.57230 37152 ft 452 kts 226°
2026-04-22 15:30 46.56525 6.49558 37151 ft 452 kts 226°
2026-04-22 15:30 46.50843 6.42884 37134 ft 452 kts 226°
2026-04-22 15:31 46.45948 6.37156 37143 ft 452 kts 226°
2026-04-22 15:31 46.41885 6.32415 37146 ft 451 kts 225°
2026-04-22 15:32 46.36999 6.26717 37125 ft 450 kts 226°
2026-04-22 15:32 46.32124 6.21041 37129 ft 449 kts 226°
2026-04-22 15:33 46.26219 6.14858 37129 ft 459 kts 213°
2026-04-22 15:33 46.21100 6.12264 37128 ft 473 kts 196°
2026-04-22 15:34 46.14612 6.10821 37121 ft 475 kts 194°
2026-04-22 15:34 46.08073 6.09380 37128 ft 475 kts 194°
2026-04-22 15:35 46.01537 6.07932 37130 ft 475 kts 194°
2026-04-22 15:35 45.95003 6.06480 37127 ft 475 kts 194°
2026-04-22 15:36 45.88514 6.05048 37132 ft 475 kts 194°
2026-04-22 15:36 45.81983 6.03621 37133 ft 475 kts 194°
2026-04-22 15:37 45.75462 6.02178 37121 ft 474 kts 194°
2026-04-22 15:37 45.68944 6.00738 37101 ft 474 kts 194°
2026-04-22 15:38 45.62430 5.99293 37100 ft 473 kts 194°
2026-04-22 15:38 45.52706 5.97161 37099 ft 474 kts 194°
2026-04-22 15:39 45.46194 5.95706 37104 ft 473 kts 195°
2026-04-22 15:39 45.39772 5.93805 37084 ft 471 kts 198°
2026-04-22 15:40 45.33402 5.91659 37101 ft 470 kts 199°
2026-04-22 15:40 45.27063 5.89590 37110 ft 471 kts 198°
2026-04-22 15:41 45.20666 5.87597 37101 ft 471 kts 198°
2026-04-22 15:41 45.14257 5.85642 37107 ft 470 kts 197°
2026-04-22 15:42 45.07862 5.83685 37103 ft 470 kts 198°
2026-04-22 15:42 45.01481 5.81719 37086 ft 469 kts 198°
2026-04-22 15:43 44.95151 5.79762 37093 ft 469 kts 198°
2026-04-22 15:43 44.88780 5.77804 37097 ft 469 kts 198°
2026-04-22 15:44 44.82406 5.75840 37070 ft 469 kts 197°
2026-04-22 15:44 44.76071 5.73902 37079 ft 469 kts 198°
2026-04-22 15:45 44.69690 5.71955 37083 ft 470 kts 197°
2026-04-22 15:45 44.63304 5.70009 37080 ft 470 kts 197°
2026-04-22 15:46 44.56910 5.68072 37082 ft 471 kts 197°
2026-04-22 15:46 44.50508 5.66133 37090 ft 471 kts 197°
2026-04-22 15:47 44.44146 5.64208 37088 ft 471 kts 197°
2026-04-22 15:47 44.37770 5.62152 37105 ft 467 kts 203°
2026-04-22 15:48 44.31745 5.58918 37113 ft 463 kts 207°
2026-04-22 15:48 44.25747 5.55625 37093 ft 463 kts 207°
2026-04-22 15:49 44.19789 5.52366 37102 ft 463 kts 207°
2026-04-22 15:49 44.13783 5.49095 37135 ft 464 kts 206°
2026-04-22 15:50 44.07778 5.45835 37121 ft 463 kts 206°
2026-04-22 15:50 44.01770 5.42578 37128 ft 464 kts 206°
2026-04-22 15:51 43.95761 5.39313 37125 ft 463 kts 206°
2026-04-22 15:51 43.89792 5.36085 37117 ft 464 kts 206°
2026-04-22 15:52 43.83777 5.32850 37090 ft 464 kts 206°
2026-04-22 15:52 43.77757 5.29606 37102 ft 464 kts 206°
2026-04-22 15:53 43.71791 5.26394 37106 ft 463 kts 206°
2026-04-22 15:53 43.65785 5.23162 37093 ft 463 kts 206°
2026-04-22 15:54 43.59779 5.19950 37094 ft 463 kts 206°
2026-04-22 15:54 43.53771 5.16742 37098 ft 463 kts 206°
2026-04-22 15:55 43.47767 5.13546 37090 ft 463 kts 206°
2026-04-22 15:55 43.41799 5.10374 37094 ft 463 kts 206°
2026-04-22 15:56 43.36157 5.06361 37096 ft 452 kts 220°
2026-04-22 15:56 43.30974 5.01445 37080 ft 452 kts 220°
2026-04-22 15:57 43.25781 4.96567 37092 ft 453 kts 219°
2026-04-22 15:57 43.20617 4.91724 37103 ft 452 kts 219°
2026-04-22 15:58 43.15428 4.86860 37122 ft 451 kts 219°
2026-04-22 15:58 43.10245 4.82014 37113 ft 451 kts 219°
2026-04-22 15:59 43.05027 4.77245 37119 ft 454 kts 214°
2026-04-22 15:59 42.99541 4.73079 37115 ft 454 kts 214°
2026-04-22 16:00 42.94017 4.68893 37116 ft 454 kts 214°
2026-04-22 16:00 42.88491 4.64718 37108 ft 454 kts 214°
2026-04-22 16:01 42.82963 4.60555 37110 ft 454 kts 214°
2026-04-22 16:01 42.77477 4.56410 37097 ft 454 kts 214°
2026-04-22 16:02 42.71950 4.52247 37108 ft 454 kts 213°
2026-04-22 16:02 42.66425 4.48101 37107 ft 454 kts 213°
2026-04-22 16:03 42.60893 4.43966 37105 ft 454 kts 213°
2026-04-22 16:03 42.55398 4.39871 37109 ft 454 kts 213°
2026-04-22 16:04 42.49868 4.35749 37093 ft 454 kts 213°
2026-04-22 16:04 42.44329 4.31616 37085 ft 455 kts 213°
2026-04-22 16:05 42.38785 4.27488 37090 ft 455 kts 213°
2026-04-22 16:05 42.33230 4.23364 37094 ft 456 kts 213°
2026-04-22 16:06 42.27701 4.19283 37061 ft 456 kts 213°
2026-04-22 16:06 42.22134 4.15179 37088 ft 456 kts 213°
2026-04-22 16:07 42.16569 4.11081 37089 ft 455 kts 213°
2026-04-22 16:07 42.11012 4.06991 37088 ft 455 kts 213°
2026-04-22 16:08 42.05485 4.02934 37091 ft 455 kts 213°
2026-04-22 16:08 41.99916 3.98868 37091 ft 455 kts 213°
2026-04-22 16:09 41.94335 3.94838 37077 ft 457 kts 209°
2026-04-22 16:09 41.88195 3.92384 37068 ft 465 kts 193°
2026-04-22 16:10 41.81858 3.90944 37074 ft 465 kts 193°
2026-04-22 16:10 41.75472 3.89465 37077 ft 465 kts 193°
2026-04-22 16:11 41.69088 3.87992 37070 ft 466 kts 193°
2026-04-22 16:11 41.62703 3.86527 37076 ft 465 kts 193°
2026-04-22 16:12 41.56363 3.85073 37074 ft 465 kts 193°
2026-04-22 16:12 41.49982 3.83608 37073 ft 465 kts 193°
2026-04-22 16:13 41.43603 3.82142 37067 ft 465 kts 193°
2026-04-22 16:13 41.37232 3.80680 37066 ft 464 kts 193°
2026-04-22 16:14 41.30913 3.79246 37065 ft 464 kts 193°
2026-04-22 16:14 41.24554 3.77806 37064 ft 463 kts 193°
2026-04-22 16:15 41.18203 3.76363 37071 ft 463 kts 193°
2026-04-22 16:15 41.12070 3.74046 37072 ft 457 kts 205°
2026-04-22 16:16 41.06150 3.70982 37050 ft 457 kts 205°
2026-04-22 16:16 41.00280 3.67954 37074 ft 455 kts 205°
2026-04-22 16:17 40.94388 3.64929 37072 ft 453 kts 205°
2026-04-22 16:17 40.88509 3.61923 37041 ft 452 kts 205°
2026-04-22 16:18 40.85566 3.60416 36399 ft 455 kts 205°
2026-04-22 16:18 40.82606 3.58899 35753 ft 457 kts 205°
2026-04-22 16:18 40.79640 3.57379 35132 ft 458 kts 205°
2026-04-22 16:18 40.76663 3.55853 34526 ft 459 kts 205°
2026-04-22 16:19 40.73719 3.54350 33926 ft 460 kts 205°
2026-04-22 16:19 40.70736 3.52827 33247 ft 460 kts 205°
2026-04-22 16:19 40.67752 3.51306 32580 ft 459 kts 205°
2026-04-22 16:19 40.64777 3.49796 31928 ft 457 kts 205°
2026-04-22 16:20 40.61813 3.48296 31292 ft 455 kts 205°
2026-04-22 16:20 40.58863 3.46804 30676 ft 453 kts 205°
2026-04-22 16:20 40.55933 3.45319 30064 ft 450 kts 205°
2026-04-22 16:20 40.53020 3.43843 29359 ft 448 kts 205°
2026-04-22 16:21 40.50126 3.42376 28658 ft 445 kts 205°
2026-04-22 16:21 40.47286 3.40933 28000 ft 441 kts 205°
2026-04-22 16:21 40.44395 3.39469 27334 ft 438 kts 205°
2026-04-22 16:21 40.41738 3.37717 26679 ft 429 kts 218°
2026-04-22 16:22 40.37998 3.31966 25441 ft 410 kts 248°
2026-04-22 16:22 40.37129 3.28454 24842 ft 403 kts 262°
2026-04-22 16:22 40.36958 3.24823 24254 ft 397 kts 275°
2026-04-22 16:23 40.38616 3.18163 23782 ft 372 kts 302°
2026-04-22 16:23 40.40171 3.15546 23832 ft 357 kts 314°
2026-04-22 16:23 40.41914 3.13373 23781 ft 344 kts 310°
2026-04-22 16:24 40.43096 3.10743 23707 ft 335 kts 288°
2026-04-22 16:24 40.43122 3.04655 23189 ft 342 kts 254°
2026-04-22 16:24 40.42088 3.01834 22936 ft 347 kts 238°
2026-04-22 16:25 40.40420 2.99538 22662 ft 352 kts 219°
2026-04-22 16:25 40.35757 2.97638 22093 ft 364 kts 180°
2026-04-22 16:25 40.33304 2.98332 21803 ft 369 kts 160°
2026-04-22 16:26 40.31123 3.00111 21503 ft 373 kts 138°
2026-04-22 16:26 40.29360 3.02608 21183 ft 374 kts 133°
2026-04-22 16:26 40.27648 3.05163 20878 ft 372 kts 133°
2026-04-22 16:26 40.25948 3.07711 20563 ft 371 kts 133°
2026-04-22 16:27 40.24250 3.10256 20254 ft 370 kts 133°
2026-04-22 16:27 40.22558 3.12783 19932 ft 368 kts 133°
2026-04-22 16:27 40.20872 3.15291 19607 ft 366 kts 133°
2026-04-22 16:27 40.19189 3.17787 19308 ft 364 kts 133°
2026-04-22 16:28 40.17537 3.20229 18975 ft 363 kts 133°
2026-04-22 16:28 40.15871 3.22689 18662 ft 361 kts 133°
2026-04-22 16:28 40.14213 3.25139 18339 ft 359 kts 133°
2026-04-22 16:28 40.12563 3.27577 17990 ft 357 kts 133°
2026-04-22 16:29 40.10920 3.30011 17669 ft 356 kts 133°
2026-04-22 16:29 40.09287 3.32430 17351 ft 353 kts 133°
2026-04-22 16:29 40.07671 3.34821 17060 ft 349 kts 133°
2026-04-22 16:29 40.06072 3.37182 16804 ft 346 kts 133°
2026-04-22 16:30 40.04951 3.38647 16627 ft 343 kts 142°
2026-04-22 16:30 40.02269 3.40809 16286 ft 337 kts 161°
2026-04-22 16:30 40.00069 3.41644 16041 ft 332 kts 174°
2026-04-22 16:30 39.97789 3.41878 15786 ft 328 kts 181°
2026-04-22 16:31 39.95509 3.42002 15530 ft 328 kts 181°
2026-04-22 16:31 39.93231 3.42125 15147 ft 328 kts 181°
2026-04-22 16:31 39.90945 3.42249 14706 ft 329 kts 181°
2026-04-22 16:31 39.88653 3.42378 14317 ft 329 kts 181°
2026-04-22 16:32 39.86398 3.42241 13996 ft 321 kts 197°
2026-04-22 16:32 39.84359 3.41193 13598 ft 312 kts 217°
2026-04-22 16:32 39.82771 3.39428 13000 ft 300 kts 235°
2026-04-22 16:32 39.81705 3.37145 12289 ft 294 kts 248°
2026-04-22 16:33 39.80807 3.34760 11588 ft 293 kts 247°
2026-04-22 16:33 39.79904 3.32381 10862 ft 294 kts 247°
2026-04-22 16:33 39.78994 3.29996 10114 ft 296 kts 247°
2026-04-22 16:33 39.78075 3.27593 9325 ft 297 kts 246°
2026-04-22 16:34 39.77164 3.25215 8793 ft 289 kts 246°
2026-04-22 16:34 39.76283 3.22926 8405 ft 277 kts 246°
2026-04-22 16:34 39.75447 3.20756 8043 ft 267 kts 246°
2026-04-22 16:34 39.74635 3.18643 7711 ft 257 kts 246°
2026-04-22 16:35 39.73854 3.16603 7367 ft 248 kts 246°
2026-04-22 16:35 39.73100 3.14634 7051 ft 238 kts 245°
2026-04-22 16:35 39.72376 3.12744 6756 ft 230 kts 245°
2026-04-22 16:35 39.71671 3.10901 6459 ft 227 kts 245°
2026-04-22 16:36 39.70970 3.09073 6122 ft 226 kts 244°
2026-04-22 16:36 39.70158 3.07243 5521 ft 241 kts 240°
2026-04-22 16:36 39.69267 3.05361 5071 ft 247 kts 239°
2026-04-22 16:36 39.68377 3.03471 4719 ft 241 kts 239°
2026-04-22 16:37 39.67533 3.01670 4404 ft 232 kts 240°
2026-04-22 16:37 39.66715 2.99925 4107 ft 223 kts 240°
2026-04-22 16:37 39.65925 2.98239 3826 ft 214 kts 240°
2026-04-22 16:37 39.65164 2.96617 3546 ft 207 kts 240°
2026-04-22 16:38 39.64430 2.95052 3300 ft 200 kts 239°
2026-04-22 16:38 39.63742 2.93587 3055 ft 182 kts 240°
2026-04-22 16:38 39.63108 2.92239 2799 ft 169 kts 239°
2026-04-22 16:38 39.62512 2.90969 2586 ft 161 kts 239°
2026-04-22 16:39 39.61950 2.89774 2367 ft 154 kts 239°
2026-04-22 16:39 39.61407 2.88619 2194 ft 147 kts 239°
2026-04-22 16:39 39.60878 2.87494 1994 ft 145 kts 239°
2026-04-22 16:39 39.60355 2.86382 1801 ft 144 kts 239°
2026-04-22 16:40 39.59836 2.85280 1606 ft 143 kts 239°
2026-04-22 16:40 39.59318 2.84181 1415 ft 143 kts 239°
2026-04-22 16:40 39.58290 2.81998 1060 ft 141 kts 238°
2026-04-22 16:41 39.57780 2.80917 888 ft 140 kts 238°
2026-04-22 16:41 39.57282 2.79860 715 ft 138 kts 238°
2026-04-22 16:41 39.56788 2.78813 532 ft 136 kts 238°
2026-04-22 16:41 39.56301 2.77781 352 ft 133 kts 237°
2026-04-22 16:42 39.55818 2.76758 174 ft 134 kts 237°
2026-04-22 16:42 39.55334 2.75729 34 ft 130 kts 241°
2026-04-22 16:42 39.54965 2.74933 31 ft 64 kts 238°
2026-04-22 16:42 39.54842 2.74656 33 ft 24 kts 248°
2026-04-22 16:43 39.54807 2.74481 32 ft 15 kts 266°
2026-04-22 16:43 39.54803 2.74343 35 ft 16 kts 269°
2026-04-22 16:43 39.54801 2.74201 36 ft 16 kts 264°
2026-04-22 16:43 39.54760 2.74072 36 ft 14 kts 241°
2026-04-22 16:44 39.54706 2.73954 36 ft 16 kts 239°
2026-04-22 16:44 39.54666 2.73867 36 ft 8 kts 239°
2026-04-22 16:44 39.54642 2.73817 35 ft 7 kts 239°
2026-04-22 16:44 39.54629 2.73787 36 ft 0 kts 239°
2026-04-22 16:45 39.54628 2.73786 36 ft 1 kts 239°
2026-04-22 16:45 39.54625 2.73778 36 ft 2 kts 239°
2026-04-22 16:45 39.54613 2.73752 36 ft 5 kts 239°
2026-04-22 16:45 39.54589 2.73696 36 ft 10 kts 247°
2026-04-22 16:46 39.54609 2.73622 36 ft 10 kts 308°
2026-04-22 16:46 39.54628 2.73560 36 ft 8 kts 297°
2026-04-22 16:46 39.54660 2.73510 36 ft 7 kts 277°
2026-04-22 16:46 39.54647 2.73449 34 ft 5 kts 259°
2026-04-22 16:47 39.54645 2.73437 35 ft 0 kts 258°